Hourly Data Report for October 08, 2014

All times are specified in Local Standard Time (LST). Add 1 hour to adjust for Daylight Saving Time where and when it is observed.

TORONTO INTL A
ONTARIO

43°40'36.000" N
79°37'50.000" W
173.40 m
6158731
71624
YYZ

Download Data

Hourly Data (October 2014)
Hourly Data Report for October 8, 2014
Temp Definition
°C
Dew Point Temp Definition
°C
Rel Hum Definition
%
Wind Dir Definition
10's deg

Wind Spd Definition
km/h
Visibility Definition
km
Stn Press Definition
kPa
Hmdx Definition


Wind Chill Definition


Weather Definition


TIME
00:00 Legend Double Dagger 11.6 10.8 95 21 7 9.7 98.37     Fog
01:00 Legend Double Dagger 11.6 10.8 95 24 8 9.7 98.36     Fog
02:00 Legend Double Dagger 11.4 10.6 95 26 15 9.7 98.36     Fog
03:00 Legend Double Dagger 10.9 9.5 91 25 17 19.3 98.34     LegendNANA
04:00 Legend Double Dagger 10.7 9.1 90 25 16 19.3 98.36     Mostly Cloudy
05:00 Legend Double Dagger 10.3 8.7 90 26 17 19.3 98.42     LegendNANA
06:00 Legend Double Dagger 10.0 8.3 89 25 18 24.1 98.47     LegendNANA
07:00 Legend Double Dagger 10.5 8.6 88 24 17 24.1 98.51     Mostly Cloudy
08:00 Legend Double Dagger 10.8 8.7 87 25 17 24.1 98.57     LegendNANA
09:00 Legend Double Dagger 12.7 7.8 72 26 27 24.1 98.59     LegendNANA
10:00 Legend Double Dagger 13.7 4.4 53 27 35 24.1 98.61     Mainly Clear
11:00 Legend Double Dagger 13.4 1.1 43 27 49 24.1 98.69     LegendNANA
12:00 Legend Double Dagger 13.2 2.2 47 26 34 24.1 98.77     LegendNANA
13:00 Legend Double Dagger 11.2 1.2 50 27 42 24.1 98.80     Mostly Cloudy
14:00 Legend Double Dagger 10.9 1.2 51 28 39 24.1 98.87     LegendNANA
15:00 Legend Double Dagger 10.3 2.0 56 26 33 24.1 98.94     LegendNANA
16:00 Legend Double Dagger 10.4 1.8 55 25 28 24.1 98.99     Mostly Cloudy
17:00 Legend Double Dagger 10.6 1.2 52 27 26 24.1 99.02     LegendNANA
18:00 Legend Double Dagger 10.6 1.2 52 25 21 24.1 99.04     LegendNANA
19:00 Legend Double Dagger 9.8 3.8 66 24 10 19.3 99.07     Rain Showers
20:00 Legend Double Dagger 9.8 4.2 68 29 8 24.1 99.10     LegendNANA
21:00 Legend Double Dagger 8.6 4.3 74 29 14 24.1 99.20     LegendNANA
22:00 Legend Double Dagger 7.2 3.5 77 28 10 24.1 99.22     Mainly Clear
23:00 Legend Double Dagger 6.6 3.2 79 23 12 24.1 99.24     LegendNANA

Notes on Data Quality.

Legend

  • E = Estimated
  • M = Missing
  • NA = Not Available
  • ‡ = Partner data that is not subject to review by the National Climate Archives
Date modified: